When you browse on this site, cookies collect data to enhance your experience and personalize the content and advertising you see.
Visit our Privacy Policy to learn more. By continuing to use the site, you agree to this use of cookies and data.
  • In Czech Republic
  • List of Countries
  • For 7 days
  • Water Temperature
  • Weather Map
  • Weather Widgets
  • user-avatar
    Login

    Hourly Weather Malanje

    Today, 15 September, Sunday

    Time Temperature Precipitation Wind Pressure Humidity
    00:00 +21°C° 0 mm 2 mps 664 mmHg 64%
    01:00 +20°C° 0 mm 1 mps 664 mmHg 73%
    02:00 +20°C° 0 mm 1 mps 664 mmHg 75%
    03:00 +19°C° 0 mm 1 mps 664 mmHg 78%
    04:00 +19°C° 0 mm 1 mps 664 mmHg 81%
    05:00 +20°C° 0 mm 1 mps 664 mmHg 76%
    06:00 +19°C° 0 mm 0 mps 665 mmHg 72%
    07:00 +20°C° 0 mm 0 mps 666 mmHg 67%
    08:00 +26°C° 0 mm 1 mps 667 mmHg 55%
    09:00 +30°C° 0 mm 1 mps 668 mmHg 43%
    10:00 +34°C° 0 mm 1 mps 669 mmHg 31%
    11:00 +36°C° 0 mm 2 mps 668 mmHg 28%
    12:00 +37°C° 0 mm 2 mps 667 mmHg 25%
    13:00 +38°C° 0 mm 3 mps 666 mmHg 22%
    14:00 +37°C° 0 mm 2 mps 665 mmHg 22%
    15:00 +36°C° 0 mm 2 mps 665 mmHg 23%
    16:00 +35°C° 0 mm 2 mps 664 mmHg 24%
    17:00 +32°C° 0 mm 1 mps 664 mmHg 29%
    18:00 +30°C° 0 mm 1 mps 664 mmHg 33%
    19:00 +26°C° 0 mm 0 mps 664 mmHg 37%
    20:00 +27°C° 0 mm 1 mps 665 mmHg 43%
    21:00 +26°C° 0 mm 2 mps 665 mmHg 48%
    22:00 +25°C° 0 mm 2 mps 666 mmHg 54%
    23:00 +24°C° 0 mm 2 mps 665 mmHg 56%

    Tomorrow, 16 September, Monday

    Time Temperature Precipitation Wind Pressure Humidity
    00:00 +23°C° 0 mm 1 mps 665 mmHg 59%
    01:00 +22°C° 0 mm 1 mps 664 mmHg 61%
    02:00 +21°C° 0 mm 1 mps 664 mmHg 66%
    03:00 +20°C° 0 mm 1 mps 664 mmHg 71%
    04:00 +19°C° 0 mm 1 mps 663 mmHg 76%
    05:00 +20°C° 0 mm 1 mps 664 mmHg 73%
    06:00 +21°C° 0 mm 1 mps 665 mmHg 70%
    07:00 +22°C° 0 mm 1 mps 665 mmHg 66%
    08:00 +26°C° 0 mm 1 mps 666 mmHg 55%
    09:00 +30°C° 0 mm 1 mps 667 mmHg 45%
    10:00 +33°C° 0 mm 1 mps 668 mmHg 34%
    11:00 +35°C° 0 mm 2 mps 667 mmHg 32%
    12:00 +36°C° 0 mm 2 mps 666 mmHg 30%
    13:00 +36°C° 0 mm 3 mps 666 mmHg 28%
    14:00 +36°C° 0 mm 2 mps 665 mmHg 27%
    15:00 +36°C° 0 mm 2 mps 665 mmHg 27%
    16:00 +36°C° 0 mm 2 mps 665 mmHg 26%
    17:00 +34°C° 0.1 mm 2 mps 665 mmHg 31%
    18:00 +31°C° 0.1 mm 2 mps 665 mmHg 36%
    19:00 +28°C° 0.1 mm 1 mps 666 mmHg 41%
    20:00 +27°C° 0.4 mm 2 mps 666 mmHg 49%
    21:00 +25°C° 0.4 mm 2 mps 666 mmHg 57%
    22:00 +24°C° 0.4 mm 2 mps 666 mmHg 65%
    23:00 +23°C° 0 mm 2 mps 665 mmHg 67%

    Day after tomorrow, 17 September, Tuesday

    Time Temperature Precipitation Wind Pressure Humidity
    00:00 +21°C° 0 mm 2 mps 665 mmHg 70%
    01:00 +21°C° 0 mm 2 mps 664 mmHg 73%
    02:00 +20°C° 0 mm 2 mps 664 mmHg 76%
    03:00 +19°C° 0 mm 2 mps 664 mmHg 79%
    04:00 +18°C° 0 mm 2 mps 664 mmHg 81%
    05:00 +20°C° 0 mm 1 mps 664 mmHg 79%
    06:00 +20°C° 0 mm 1 mps 665 mmHg 76%
    07:00 +21°C° 0 mm 1 mps 665 mmHg 73%
    08:00 +25°C° 0 mm 2 mps 666 mmHg 60%
    09:00 +29°C° 0 mm 2 mps 666 mmHg 48%
    10:00 +32°C° 0 mm 2 mps 667 mmHg 35%
    11:00 +35°C° 0 mm 2 mps 666 mmHg 32%
    12:00 +35°C° 0 mm 1 mps 666 mmHg 28%
    13:00 +36°C° 0 mm 1 mps 665 mmHg 25%
    14:00 +35°C° 0 mm 2 mps 664 mmHg 29%
    15:00 +32°C° 0 mm 2 mps 664 mmHg 34%
    16:00 +30°C° 0 mm 3 mps 663 mmHg 38%
    17:00 +29°C° 0 mm 3 mps 664 mmHg 39%
    18:00 +28°C° 0 mm 2 mps 664 mmHg 40%
    19:00 +27°C° 0 mm 2 mps 664 mmHg 42%
    20:00 +26°C° 0 mm 2 mps 664 mmHg 48%
    21:00 +25°C° 0 mm 3 mps 665 mmHg 54%
    22:00 +24°C° 0 mm 3 mps 665 mmHg 59%
    23:00 +22°C° 0 mm 3 mps 665 mmHg 63%

    18 September, Wednesday

    Time Temperature Precipitation Wind Pressure Humidity
    00:00 +21°C° 0 mm 3 mps 664 mmHg 67%
    01:00 +20°C° 0 mm 3 mps 664 mmHg 71%
    02:00 +20°C° 0 mm 3 mps 664 mmHg 74%
    03:00 +19°C° 0 mm 3 mps 664 mmHg 77%
    04:00 +18°C° 0 mm 3 mps 664 mmHg 79%
    05:00 +18°C° 0 mm 3 mps 664 mmHg 76%
    06:00 +18°C° 0 mm 3 mps 665 mmHg 73%
    07:00 +19°C° 0 mm 3 mps 665 mmHg 70%
    08:00 +22°C° 0 mm 3 mps 665 mmHg 59%
    09:00 +26°C° 0 mm 3 mps 666 mmHg 47%
    10:00 +29°C° 0 mm 3 mps 666 mmHg 35%
    11:00 +32°C° 0 mm 2 mps 666 mmHg 31%
    12:00 +35°C° 0 mm 2 mps 666 mmHg 27%
    13:00 +37°C° 0 mm 1 mps 666 mmHg 23%
    14:00 +36°C° 0 mm 1 mps 665 mmHg 24%
    15:00 +35°C° 0 mm 1 mps 665 mmHg 25%
    16:00 +34°C° 0 mm 1 mps 664 mmHg 26%
    17:00 +32°C° 0 mm 2 mps 664 mmHg 30%
    18:00 +30°C° 0 mm 3 mps 664 mmHg 34%
    19:00 +28°C° 0 mm 4 mps 664 mmHg 38%
    20:00 +26°C° 0 mm 4 mps 664 mmHg 42%
    21:00 +25°C° 0 mm 3 mps 665 mmHg 46%
    22:00 +24°C° 0 mm 3 mps 665 mmHg 49%
    23:00 +22°C° 0 mm 3 mps 665 mmHg 57%

    19 September, Thursday

    Time Temperature Precipitation Wind Pressure Humidity
    00:00 +21°C° 0 mm 3 mps 665 mmHg 64%
    01:00 +20°C° 0 mm 2 mps 664 mmHg 71%
    02:00 +19°C° 0 mm 2 mps 665 mmHg 73%
    03:00 +19°C° 0 mm 2 mps 665 mmHg 76%
    04:00 +18°C° 0 mm 2 mps 665 mmHg 78%
    05:00 +18°C° 0 mm 2 mps 665 mmHg 74%
    06:00 +19°C° 0 mm 2 mps 665 mmHg 69%
    07:00 +19°C° 0 mm 2 mps 666 mmHg 65%
    08:00 +24°C° 0 mm 2 mps 666 mmHg 53%
    09:00 +28°C° 0 mm 2 mps 667 mmHg 40%
    10:00 +31°C° 0 mm 1 mps 668 mmHg 28%
    11:00 +33°C° 0 mm 1 mps 667 mmHg 26%
    12:00 +36°C° 0 mm 2 mps 667 mmHg 24%
    13:00 +38°C° 0 mm 2 mps 667 mmHg 22%
    14:00 +37°C° 0 mm 2 mps 666 mmHg 22%
    15:00 +36°C° 0 mm 2 mps 665 mmHg 23%
    16:00 +35°C° 0 mm 2 mps 664 mmHg 23%
    17:00 +34°C° 0 mm 2 mps 664 mmHg 27%
    18:00 +31°C° 0 mm 2 mps 665 mmHg 30%
    19:00 +29°C° 0 mm 3 mps 665 mmHg 33%
    20:00 +27°C° 0 mm 3 mps 665 mmHg 39%
    21:00 +25°C° 0 mm 3 mps 665 mmHg 46%
    22:00 +22°C° 0 mm 4 mps 665 mmHg 52%
    23:00 +21°C° 0 mm 4 mps 665 mmHg 60%

    20 September, Friday

    Time Temperature Precipitation Wind Pressure Humidity
    00:00 +19°C° 0 mm 4 mps 664 mmHg 67%
    01:00 +18°C° 0 mm 3 mps 664 mmHg 75%
    02:00 +18°C° 0 mm 3 mps 664 mmHg 74%
    03:00 +17°C° 0 mm 2 mps 664 mmHg 73%
    04:00 +17°C° 0 mm 2 mps 664 mmHg 72%
    05:00 +18°C° 0 mm 2 mps 665 mmHg 67%
    06:00 +18°C° 0 mm 2 mps 665 mmHg 61%
    07:00 +19°C° 0 mm 2 mps 666 mmHg 56%
    08:00 +24°C° 0 mm 2 mps 667 mmHg 46%
    09:00 +27°C° 0 mm 2 mps 667 mmHg 36%
    10:00 +31°C° 0 mm 3 mps 668 mmHg 26%
    11:00 +34°C° 0 mm 2 mps 667 mmHg 24%
    12:00 +37°C° 0 mm 2 mps 667 mmHg 22%
    13:00 +39°C° 0 mm 1 mps 666 mmHg 20%
    14:00 +37°C° 0 mm 1 mps 666 mmHg 20%
    15:00 +36°C° 0 mm 1 mps 665 mmHg 21%
    16:00 +35°C° 0 mm 1 mps 664 mmHg 22%
    17:00 +34°C° 0 mm 2 mps 664 mmHg 24%
    18:00 +31°C° 0 mm 2 mps 664 mmHg 26%
    19:00 +29°C° 0 mm 3 mps 664 mmHg 28%
    20:00 +27°C° 0 mm 3 mps 664 mmHg 33%
    21:00 +26°C° 0 mm 3 mps 665 mmHg 38%
    22:00 +24°C° 0 mm 3 mps 665 mmHg 43%
    23:00 +22°C° 0 mm 3 mps 664 mmHg 52%
    Show more